This is the latest recevied weather packets stored in our database for station/object OM0AGP-15. If no packets are shown the sender has not sent any weather packets the latest 10 day(s).
| Time | Temp. | Humidity | Pressure | Rain* | Wind** | Luminosity | Snow |
|---|---|---|---|---|---|---|---|
| 1787688807 | 13.33° C | 91% | 1018.7 hPa | - | - | - | - |
| 1787687907 | 13.33° C | 92% | 1018.6 hPa | - | - | - | - |
| 1787687007 | 13.89° C | 91% | 1018.7 hPa | - | - | - | - |
| 1787686107 | 13.89° C | 90% | 1018.5 hPa | - | - | - | - |
| 1787685207 | 14.44° C | 87% | 1018.4 hPa | - | - | - | - |
| 1787684307 | 14.44° C | 90% | 1018.4 hPa | - | - | - | - |
| 1787683407 | 14.44° C | 88% | 1018.5 hPa | - | - | - | - |
| 1787682506 | 14.44° C | 95% | 1018.4 hPa | - | - | - | - |
| 1787681606 | 15° C | 90% | 1018.1 hPa | - | - | - | - |
| 1787680706 | 15° C | 82% | 1018.1 hPa | - | - | - | - |
| 1787679806 | 15.56° C | 79% | 1018.1 hPa | - | - | - | - |
| 1787678906 | 16.11° C | 81% | 1018.1 hPa | - | - | - | - |
| 1787678006 | 16.11° C | 89% | 1018 hPa | - | - | - | - |
| 1787677106 | 15.56° C | 74% | 1017.9 hPa | - | - | - | - |
| 1787676206 | 15.56° C | 74% | 1017.6 hPa | - | - | - | - |
| 1787675306 | 15.56° C | 73% | 1017.7 hPa | - | - | - | - |
| 1787674406 | 16.11° C | 72% | 1017.5 hPa | - | - | - | - |
| 1787673506 | 16.11° C | 70% | 1017.6 hPa | - | - | - | - |
| 1787672606 | 16.67° C | 68% | 1017.5 hPa | - | - | - | - |
| 1787671706 | 16.67° C | 66% | 1017.3 hPa | - | - | - | - |
| 1787670806 | 17.22° C | 65% | 1017.3 hPa | - | - | - | - |
| 1787669906 | 17.22° C | 64% | 1017.1 hPa | - | - | - | - |
| 1787669005 | 17.78° C | 63% | 1017.2 hPa | - | - | - | - |
| 1787668105 | 17.78° C | 61% | 1017.2 hPa | - | - | - | - |
| 1787667205 | 17.78° C | 61% | 1017.1 hPa | - | - | - | - |
* Rain since midnight (hover to see other rain measurements)
** Current wind speed in m/s (hover to see current wind gust speed)